Weather in Ponizye

Russia / Kostroma Oblast     58°18′51″N   43°10′08″E
temp.,
°C
wind,
m/s
gust,
m/s
humid.,
%
clouds,
%
prec.,
mm/h
press.,
hPa
HPBL,
m
11 april, sun
sun1100:00−1s311920 0.0 1026199
03:00−1ssw312914 0.0 1026258
06:00−1ssw312902 0.0 1026251
09:00+5sw36755 0.0 1027390
12:00+9wsw367125 0.0 1028852
15:00+9w3577100 0.1 1029951
18:00+6wnw1293100 0.1 103244
21:00+4sw119664 0.1 103411
12 april, mon
mon1200:000nnw119779 0.0 103612
03:000ene23975 0.0 103740
06:00+2e1493100 0.0 1038108
09:00+6ese248294 0.0 1038236
12:00+11se23675 0.0 1037729
15:00+13se346144 0.0 10361176
18:00+10se3778100 0.0 1035229
21:00+6se31094100 0.0 1035327
13 april, tue
tue1300:00+4se31095100 0.0 1034345
03:00+4se3898100 0.0 1032302
06:00+4sse2998100 0.0 1031303
09:00+8s3687100 0.0 1029349
12:00+15s476582 0.0 1028634
15:00+16s4862100 0.0 1027717
18:00+13s31076100 0.0 1026337
21:00+10s31088100 0.0 1026193
14 april, wed
wed1400:00+8s3984100 0.0 1025156
03:00+7ssw278396 0.0 1025126
06:00+6s278492 0.0 1025125
09:00+12ssw3663100 0.0 1024319
12:00+16ssw46505 0.0 1023666
15:00+19ssw47435 0.0 10221324
18:00+16s3855100 0.0 1021260
21:00+11s31170100 0.0 1021206
15 april, thu
thu1500:00+10ssw297391 0.0 1020160
03:00+8sw257946 0.0 101981
06:00+7wsw128177 0.0 101924
09:00+12w2365100 0.0 1018347
12:00+15wnw2357100 0.0 1018952
15:00+11nnw4572100 0.0 1018634
18:00+6n5780100 0.0 1020547
21:00+3n41195100 0.1 1021493